Regional Weather Roundup
Issued by NWS Sterling, VA

Home | Current Version | Previous Version | Text Only | Print | Product List | Glossary Off
Versions: 1 2 3 4 5 6 7 8 9 10 11 12 13 14 15 16 17 18 19 20 21 22 23 24 25 26 27

000
ASUS41 KLWX 221910
RWRLWX

REGIONAL WEATHER ROUNDUP
NATIONAL WEATHER SERVICE BALTIMORE MD/WASHINGTON DC
300 PM EDT WED MAR 22 2017

Note: "FAIR" indicates few or no clouds below 12,000 feet
with no significant weather and/or obstructions to visibility.
 TC=TEMPERATURE CELSIUS

 * =Non NWS site. Station does not report precipitation (e.g. rain,
    snow, etc.), thunder, or fog.

DCZ001-MDZ009-015-VAZ040>042-051-053>054-222000-
WASHINGTON METRO

CITY           SKY/WX    TMP DP  RH WIND       PRES   REMARKS
WASHINGTON NAT SUNNY     49  13  23 NW16      30.27F
DULLES         SUNNY     47  11  23 N14       30.28S
ANDREWS AFB    SUNNY     47  11  23 NW22G30   30.24S
FT BELVOIR     SUNNY     48   4  16 NW17G25   30.27F
QUANTICO       SUNNY     48  14  25 N23G36    30.29F
COLLEGE PARK*  SUNNY     45  10  24 NW13G18   30.26S
LEESBURG*      SUNNY     46  19  34 NW16G29   30.28F
MANASSAS*      SUNNY     47   9  21 N25G35    30.29S
GAITHERSBURG*  SUNNY     45   7  21 NW15G25   30.30S

$$

MDZ006>007-011-014-222000-
BALTIMORE METRO

CITY           SKY/WX    TMP DP  RH WIND       PRES   REMARKS
BWI AIRPORT    SUNNY     46   7  20 N17G23    30.25S
MD SCIENCE CTR   N/A     45  -1  14 MISG      30.27S
MARTIN STATE   SUNNY     46   9  21 NW16G25   30.27R
ANNAPOLIS      SUNNY     46  16  30 NW16G26   30.25R
FORT MEADE*    SUNNY     45   7  21 NW13G26   30.28S

$$

MDZ012-015-019>023-222000-
MARYLAND EASTERN SHORE

CITY           SKY/WX    TMP DP  RH WIND       PRES   REMARKS
OCEAN CITY     SUNNY     48  12  23 N20G33    30.19R
SALISBURY      SUNNY     48  14  25 NW20G28   30.20S
BAY BRIDGE AP* SUNNY     45  14  29 N17G29    30.26S
CAMBRIDGE*     SUNNY     45  10  24 NW16G26   30.24S
EASTON*        SUNNY     46   9  21 N21G30    30.28S

$$

MDZ017>025-222000-
SOUTHERN MARYLAND

CITY           SKY/WX    TMP DP  RH WIND       PRES   REMARKS
PATUXENT RIVER MOSUNNY   48  20  32 NW21      30.24R
ST INIGOES     SUNNY     49  15  25 NW18G29   30.23S
LEONARDTOWN*   SUNNY     46  12  25 N9G20     30.25F

$$

MDZ003>005-222000-
NORTH CENTRAL MARYLAND

CITY           SKY/WX    TMP DP  RH WIND       PRES   REMARKS
FREDERICK*     SUNNY     46  10  23 NW17G30   30.31F
HAGERSTOWN APT SUNNY     42   8  24 NW21G29   30.27F
WESTMINSTER*   SUNNY     43  10  26 NW9G25    30.24S

$$

MDZ501>502-222000-
WESTERN MARYLAND

CITY           SKY/WX    TMP DP  RH WIND       PRES   REMARKS
OAKLAND*       SUNNY     30   9  40 NW10G21   30.26S WCI  21
CUMBERLAND*    SUNNY     43   9  24 NW16G31   30.37S

$$

VAZ025>031-222000-
SHENANDOAH VALLEY

CITY           SKY/WX    TMP DP  RH WIND       PRES   REMARKS
WINCHESTER*    SUNNY     43  10  26 NW16G25   30.28S
FRONT ROYAL*   SUNNY     45  12  26 NW16G24   30.27F
LURAY*         SUNNY     45  16  31 N8G22     30.27F
NEW MARKET*    SUNNY     44   7  21 N12G22    30.28S
STAUNTON*      SUNNY     45  10  24 NE16G22   30.28S
WAYNESBORO*    SUNNY     46  12  25 NE9G20    30.25S

$$

WVZ021-048>050-054>055-222000-
EASTERN WEST VIRGINIA PANHANDLE

CITY           SKY/WX    TMP DP  RH WIND       PRES   REMARKS
MARTINSBURG    SUNNY     44   4  19 NW17G30   30.29S
PETERSBURG*    SUNNY     44  18  34 W13G25    30.33F

$$

VAZ036>039-050-222000-
CENTRAL FOOTHILLS

CITY           SKY/WX    TMP DP  RH WIND       PRES   REMARKS
CHARLOTTESVILL SUNNY     50  10  20 N13G20    30.27S
CULPEPER*      SUNNY     48  13  23 N21G28    30.29F
ORANGE*        SUNNY     46  12  25 N7G20     30.29S
GORDONSVILLE*  SUNNY     48  10  21 N8G20     30.27S
WARRENTON*     SUNNY     49   4  15 N12G25    30.28S

$$

VAZ055>057-222000-
NORTH AND CENTRAL PIEDMONT

CITY           SKY/WX    TMP DP  RH WIND       PRES   REMARKS
FREDERICKSBRG* SUNNY     49  18  29 N21G26    30.27F
STAFFORD*      SUNNY     46  15  28 NW14G25   30.31F

$$

NCZ024-NYZ072-PAZ021-071-VAZ022-071-222000-
OTHER REGIONAL OBSERVATIONS

CITY           SKY/WX    TMP DP  RH WIND       PRES   REMARKS
NEW YORK CITY  SUNNY     33  -5  19 NW21G32   30.21S WCI  21
PHILADELPHIA   SUNNY     40   6  24 N17G31    30.25R
PITTSBURGH     SUNNY     37   6  27 N16G23    30.41F WCI  28
ROANOKE        SUNNY     55  13  18 N13       30.24F
RICHMOND       MOSUNNY   51  13  21 N25G33    30.25R
RALEIGH        PTSUNNY   63  31  30 NE15G24   30.15S

$$

ANZ530>537-222000-
MARINE OBSERVATIONS

STATION/POSITION TIME  TEMP    WIND        PRES
                       AIR SEA DIR/SP/G
                 (UTC) (F)     (DEG/KT/KT) (MB)
THOMAS PT LIGHT  1900   43 44  360/ 21/ 23   N/A
BALT KEY BRIDGE  1848   42     340/ 20/ 23 1024.3R
COVE POINT       1848   43      20/ 15/ 24 1024.5F
LEWISETTA        1848   46 49  350/ 13/ 19 1023.8R
SOLOMONS ISLAND  1848   45 46  320/ 14/ 21   N/A
PINEY POINT      1848          340/ 22/ 24   N/A

$$





USA.gov is the U.S. government's official web portal to all federal, state and local government web resources and services.